Regional Weather Roundup
Issued by NWS Bismarck, ND

Home | Current Version | Previous Version | Text Only | Print | Product List | Glossary On
Versions: 1 2 3 4 5 6 7 8 9 10 11 12 13 14 15 16 17 18 19 20 21 22 23 24 25 26 27 28 29 30 31 32 33 34 35 36 37 38 39 40 41 42 43 44 45 46 47 48 49 50
000
ASUS43 KBIS 041710
RWRBIS

NWR BROADCAST TEXT
NATIONAL WEATHER SERVICE BISMARCK ND
1200 PM CDT WED MAY 04 2016

NOTE: "FAIR" INDICATES FEW OR NO CLOUDS BELOW 12,000 FEET WITH NO
SIGNIFICANT WEATHER AND/OR OBSTRUCTIONS TO VISIBILITY.


CITY           SKY/WX    TMP DP  RH WIND       PRES   REMARKS
WILLISTON      SUNNY     77  45  32 SW9       30.02F
MINOT          SUNNY     79  34  19 E6        30.02F
MINOT AFB      SUNNY     74  38  27 SW8       30.00F
BISMARCK       SUNNY     69  34  27 S5        30.09F
DICKINSON      SUNNY     74  39  28 SW7       30.05F
GARRISON         N/A     71  36  27 VRB6      30.05F
HETTINGER ARPT SUNNY     73  41  31 SW8       30.10F
JAMESTOWN      SUNNY     60  34  37 VRB6      30.09F
BEACH          FAIR      75  36  23 SW8G20    30.09S
CARRINGTON     FAIR      63  32  31 NW6       30.11F
HAZEN          FAIR      72  39  30 SW3       30.07F
LINTON         FAIR      66  36  32 W6        30.12S
MANDAN         FAIR      68  34  28 S5        30.09F
OAKES            N/A    N/A N/A N/A MISG        N/A
RUGBY          FAIR      66  32  28 S8        30.06F
STANLEY        FAIR      75  41  29 SW16      30.04F
TIOGA          FAIR      75  39  27 SW15      30.06F
WATFORD CITY   FAIR      77  39  25 SW13      30.03F
$$

CITY           SKY/WX    TMP DP  RH WIND       PRES   REMARKS
GRAND FORKS    MOSUNNY   60  36  40 VRB7      30.08F
GRAND FORKS AF SUNNY     59  36  41 VRB2      30.09F
DEVILS LAKE    SUNNY     58  36  43 VRB6      30.09F
FARGO          SUNNY     61  36  39 NW7       30.08F
CANDO          FAIR      63  32  31 SE7       30.09F
CAVALIER       FAIR      57  36  44 CALM      30.08F
GRAFTON        FAIR      57  36  44 N6        30.10F
GWINNER        FAIR      61  34  36 N9        30.10S
LANGDON        FAIR      63  30  29 VRB5      30.07F
ROLLA          FAIR      63  28  27 SW9       30.06F
WALHALLA       FAIR      57  32  38 CALM      30.08F
$$

CITY           SKY/WX    TMP DP  RH WIND       PRES   REMARKS
ABERDEEN       SUNNY     63  34  33 NW12      30.11F
MOBRIDGE       SUNNY     65  38  36 S6        30.09F
BUFFALO          N/A     75  38  26 SW10      30.04F
RAPID CITY     SUNNY     71  41  33 S8        30.14S
GLASGOW        SUNNY     75  45  34 S13       29.97F
SIDNEY         SUNNY     73  45  35 SW10      30.02F
WOLF POINT     SUNNY     78  46  32 CALM      29.98F
GLENDIVE       SUNNY     73  45  35 S12       30.06F
MILES CITY     SUNNY     77  44  30 SE13      30.02F
BAKER          SUNNY     75  36  24 S14       30.08F
$$

CITY           SKY/WX    TMP DP  RH WIND       PRES   REMARKS
BILLINGS       SUNNY     73  40  30 SW10      30.06F
GREAT FALLS    SUNNY     75  36  24 SW16G23   29.98F
REGINA         MOSUNNY   82  34  17 SW15G26   29.90F
ESTEVAN        PTSUNNY   79  41  25 SW15G22   29.98F
$$




USA.gov is the U.S. government's official web portal to all federal, state and local government web resources and services.